Indianapolis, IN

4:39 PM EDT on September 23, 2019 (GMT -0400)
Indianapolis International

Weather History for KIND - July, 2019

Change the Weather History Date:

Monday, July 15, 2019

  Actual Average Record
Temperature  
Mean Temperature 82 °F 76 °F  
Max Temperature 90 °F 85 °F 103 °F (1988)
Min Temperature 73 °F 66 °F 51 °F (1967)
Degree Days  
Heating Degree Days 0 0  
Month to date heating degree days 0 0  
Since 1 June heating degree days 9 16  
Since 1 July heating degree days 0 0  
Cooling Degree Days 17 11  
Month to date cooling degree days 217 162  
Year to date cooling degree days 531 472  
Since 1 June cooling degree days 420 388  
Growing Degree Days 32 (Base 50)    
Moisture  
Dew Point 67 °F    
Average Humidity 66    
Maximum Humidity 87    
Minimum Humidity 44    
Precipitation  
Precipitation T in 0.17 in 2.05 in (1875)
Month to date precipitation 0.84 2.39  
Year to date precipitation 29.99 24.04  
Snow  
Snow 0.00 in 0.00 in 0.00 in ()
Month to date snowfall 0.0 0.0  
Since 1 June snowfall 0.0 0.0  
Since 1 July snowfall 0.0 0.0  
Snow Depth 0.00 in    
Sea Level Pressure  
Sea Level Pressure 30.08 in    
Wind  
Wind Speed 7 mph (SW)    
Max Wind Speed 18 mph    
Max Gust Speed 24 mph    
Visibility 10 miles    
Events Rain , Thunderstorm    
T = Trace of Precipitation, MM = Missing Value Source: NWS Daily Summary

Daily Weather History Graph

Daily Weather History Graph

Search for Another Location

Airport or City:

Astronomy

Jul. 15, 2019 Rise Set
Actual Time 6:29 AM EDT 9:12 PM EDT
Civil Twilight 5:57 AM EDT 9:43 PM EDT
Nautical Twilight 5:18 AM EDT 10:23 PM EDT
Astronomical Twilight 4:33 AM EDT 11:08 PM EDT
Moon 8:29 PM EDT (7/15) 5:16 AM EDT (7/15)
Length of Visible Light 15h 45m
Length of Day
14h 42m
Waxing Gibbous, 98% of the Moon is Illuminated
Jul 15
Waxing Gibbous
Jul 16
Full
Jul 24
Last Quarter
Jul 31
New
Aug 7
First Quarter

Hourly Weather History & Observations

Time (EDT) Temp. Heat Index Dew Point Humidity Pressure Visibility Wind Dir Wind Speed Gust Speed Precip Events Conditions
12:05 AM 78.1 °F - 66.9 °F 68% 30.12 in 10.0 mi Calm Calm - N/A Thunderstorm Thunderstorm
12:31 AM 77.0 °F - 66.9 °F 71% 30.12 in 10.0 mi ESE 3.5 mph - N/A   Mostly Cloudy
12:54 AM 77.0 °F - 66.9 °F 71% 30.09 in 10.0 mi ESE 4.6 mph - N/A   Scattered Clouds
1:54 AM 77.0 °F - 66.9 °F 71% 30.09 in 10.0 mi Calm Calm - N/A   Clear
2:54 AM 77.0 °F - 66.0 °F 69% 30.08 in 10.0 mi Calm Calm - N/A   Clear
3:54 AM 73.9 °F - 68.0 °F 82% 30.08 in 10.0 mi WSW 3.5 mph - N/A   Partly Cloudy
4:54 AM 73.9 °F - 69.1 °F 85% 30.09 in 10.0 mi WSW 5.8 mph - N/A   Mostly Cloudy
5:54 AM 75.0 °F - 68.0 °F 79% 30.09 in 10.0 mi WSW 8.1 mph - N/A   Scattered Clouds
6:54 AM 73.9 °F - 68.0 °F 82% 30.09 in 10.0 mi Calm Calm - N/A   Mostly Cloudy
7:54 AM 77.0 °F - 68.0 °F 74% 30.11 in 10.0 mi West 3.5 mph - N/A   Mostly Cloudy
8:54 AM 79.0 °F - 68.0 °F 69% 30.12 in 10.0 mi NNW 4.6 mph - N/A   Mostly Cloudy
9:54 AM 82.0 °F 84.1 °F 66.0 °F 58% 30.12 in 10.0 mi NW 3.5 mph - N/A   Mostly Cloudy
10:54 AM 86.0 °F 87.6 °F 64.9 °F 49% 30.12 in 10.0 mi WNW 4.6 mph - 0.00 in Rain Light Rain
11:54 AM 87.1 °F 88.3 °F 64.0 °F 46% 30.11 in 10.0 mi Variable 5.8 mph - N/A   Mostly Cloudy
12:54 PM 90.0 °F 91.3 °F 64.0 °F 42% 30.10 in 10.0 mi Calm Calm - N/A   Mostly Cloudy
1:54 PM 88.0 °F 90.7 °F 66.9 °F 49% 30.09 in 10.0 mi Variable 4.6 mph - N/A   Mostly Cloudy
2:54 PM 89.1 °F 92.9 °F 68.0 °F 50% 30.08 in 10.0 mi SSW 11.5 mph - N/A   Mostly Cloudy
3:54 PM 87.1 °F 92.0 °F 70.0 °F 57% 30.06 in 10.0 mi WSW 15.0 mph - N/A   Mostly Cloudy
4:54 PM 84.9 °F 88.8 °F 69.1 °F 59% 30.06 in 10.0 mi SW 17.3 mph - N/A   Mostly Cloudy
5:54 PM 82.0 °F 85.5 °F 69.1 °F 65% 30.05 in 10.0 mi SW 13.8 mph - N/A   Overcast
6:54 PM 80.1 °F 82.7 °F 68.0 °F 67% 30.04 in 10.0 mi SSW 10.4 mph - N/A   Overcast
7:54 PM 79.0 °F - 68.0 °F 69% 30.05 in 10.0 mi SSW 11.5 mph - 0.00 in Rain Light Rain
8:54 PM 78.1 °F - 68.0 °F 71% 30.03 in 10.0 mi South 10.4 mph - 0.00 in   Overcast
9:54 PM 77.0 °F - 64.9 °F 66% 30.01 in 10.0 mi SSE 8.1 mph - N/A   Mostly Cloudy
10:54 PM 77.0 °F - 64.9 °F 66% 30.01 in 10.0 mi SE 6.9 mph - N/A   Mostly Cloudy
11:54 PM 77.0 °F - 68.0 °F 74% 30.01 in 10.0 mi SSE 10.4 mph - N/A   Mostly Cloudy